[[{"header":{"parameterUnit":"m.s-1","parameterCategory":1,"la1":30.2991,"la2":30.254,"lo1":-89.0895,"lo2":-89.0444,"dy":0.0017,"dx":0.0017,"nx":28,"ny":28,"refTime":"2024-02-02T03:00:00:Z","depth":0,"parameterNumber":2,"parameterNumberName":"U-component_of_WINDS"},"data":[0,0,0,0,0,0,0,0,0,0,0,0,0,0,0,0,0,0,0,0,0,0,0,0,0,0,0,0,0,0,0,0,0,0,0,0,0,0,0,0,0,0,0,0,0,0,0,0,0,0,0,0,0,0,0,0,0,0,-0.6123,-0.6123,0,-0.6092,-0.6092,-0.6091,-0.6026,-0.6025,-0.6024,-0.6022,-0.5992,-0.5992,-0.5993,0,0,0,0,0,0,0,0,0,0,0,0,0,-0.6128,-0.6128,-0.6123,-0.6123,-0.6122,-0.6092,-0.6092,-0.6091,-0.6027,-0.6025,-0.6023,-0.6022,-0.5992,-0.5992,-0.5993,0,0,0,0,0,0,0,0,0,0,0,0,0,-0.6114,-0.6128,-0.6123,-0.6086,-0.6083,-0.6092,-0.6092,-0.6091,-0.6027,-0.6025,-0.6023,-0.6021,-0.5992,-0.5992,-0.5993,-0.6036,0,0,-0.5995,-0.5995,0,0,0,0,0,0,0,0,-0.6115,-0.6114,-0.6092,-0.6089,-0.6085,-0.6061,-0.6082,-0.6073,-0.6027,-0.6048,-0.6022,-0.602,-0.6017,-0.6015,-0.6014,-0.6035,-0.6034,-0.5995,-0.5995,-0.5996,-0.5996,0,0,0,0,0,0,0,-0.6116,-0.6115,-0.6111,-0.6092,-0.6087,-0.6072,-0.6068,-0.608,-0.6044,-0.6046,-0.6041,-0.6039,-0.6014,-0.6013,-0.6013,-0.6033,-0.5995,-0.5996,-0.5996,-0.5996,-0.6089,-0.6091,0,0,0,0,0,0,-0.6122,-0.6116,-0.6112,-0.611,-0.6095,-0.6074,-0.6069,-0.6071,-0.6044,-0.6037,-0.604,-0.6036,-0.6013,-0.6012,-0.6011,-0.606,-0.5996,-0.5996,-0.5997,-0.6087,-0.6089,-0.6092,0,0,0,0,0,0,-0.6123,-0.6123,-0.6113,-0.6112,-0.6109,-0.6075,-0.6078,-0.6071,-0.607,-0.6039,-0.6032,-0.6046,-0.6012,-0.601,-0.6031,-0.6058,-0.5996,-0.5997,-0.6084,-0.6088,-0.6091,-0.6158,0,0,0,0,0,0,-0.6123,-0.6123,-0.6138,-0.6113,-0.611,-0.6132,-0.608,-0.6072,-0.6071,-0.6065,-0.6042,-0.6037,-0.601,-0.603,-0.6031,-0.6058,-0.5998,-0.6082,-0.6086,-0.609,-0.6153,-0.6163,-0.6172,0,0,0,0,0,-0.6123,-0.6159,-0.614,-0.6139,-0.6128,-0.6134,-0.6133,-0.61,-0.6074,-0.6089,-0.607,-0.6038,-0.6055,-0.6033,-0.6033,-0.6061,-0.608,-0.6085,-0.6089,-0.6149,-0.6161,-0.6171,0,0,0,0,0,0,-0.6189,-0.6155,-0.6133,-0.6161,-0.6151,-0.6123,-0.6142,-0.6114,-0.6112,-0.6106,-0.6067,-0.6063,-0.6088,-0.6077,-0.6052,-0.6101,-0.6063,-0.6068,-0.6108,-0.6119,-0.6128,-0.613,-0.5998,0,0,0,0,0,-0.6207,-0.6214,-0.6184,-0.6211,-0.6208,-0.6176,-0.6177,-0.6153,-0.6142,-0.6137,-0.6119,-0.6109,-0.6112,-0.6115,-0.6117,-0.6152,-0.6146,-0.6171,-0.618,-0.6188,-0.6192,-0.621,-0.6221,-0.6107,-0.6107,-0.6107,0,0,-0.6243,-0.6226,-0.6232,-0.6224,-0.6213,-0.6222,-0.6173,-0.6184,-0.619,-0.6139,-0.6156,-0.6143,-0.613,-0.6158,-0.6169,-0.6149,-0.6223,-0.6194,-0.62,-0.6201,-0.6216,-0.6227,-0.6237,-0.611,-0.611,-0.6109,0,0,-0.6314,-0.6301,-0.6323,-0.6314,-0.6298,-0.6277,-0.6283,-0.6259,-0.6248,-0.6265,-0.6228,-0.6235,-0.6241,-0.6233,-0.623,-0.63,-0.627,-0.6302,-0.6349,-0.6367,-0.6376,-0.6384,-0.6408,-0.6418,-0.6307,-0.6307,-0.6307,0,-0.6361,-0.6372,-0.6338,-0.6351,-0.6349,-0.6304,-0.6325,-0.6318,-0.6305,-0.6304,-0.6282,-0.629,-0.6277,-0.6303,-0.632,-0.6319,-0.6324,-0.6303,-0.6378,-0.6385,-0.6392,-0.6415,-0.6424,-0.6311,-0.631,-0.631,-0.6309,0,-0.6431,-0.6439,-0.6459,-0.6446,-0.6446,-0.6464,-0.6433,-0.6438,-0.6415,-0.6397,-0.6415,-0.6399,-0.6397,-0.6401,-0.6379,-0.6424,-0.6412,-0.6385,-0.6344,-0.6407,-0.6428,-0.6436,-0.6316,-0.6315,-0.6314,-0.6313,0,0,-0.654,-0.6509,-0.6517,-0.6511,-0.6491,-0.6497,-0.6514,-0.6511,-0.6516,-0.6509,-0.6521,-0.6529,-0.6503,-0.65,-0.6476,-0.6493,-0.6549,-0.6463,-0.6462,-0.6478,-0.6597,-0.6617,-0.6628,-0.653,-0.6531,-0.6532,-0.6598,0,-0.6605,-0.663,-0.6601,-0.6632,-0.664,-0.6598,-0.6612,-0.6602,-0.6586,-0.6591,-0.6573,-0.6579,-0.6545,-0.6543,-0.6557,-0.6539,-0.6572,-0.6534,-0.6541,-0.6542,-0.6544,-0.6639,-0.666,-0.6722,-0.6606,-0.6607,-0.6608,0,-0.6684,-0.668,-0.6713,-0.6692,-0.6694,-0.6707,-0.6702,-0.6708,-0.6696,-0.6683,-0.668,-0.6653,-0.6668,-0.6631,-0.6651,-0.6626,-0.6628,-0.662,-0.6621,-0.662,-0.6578,-0.6639,-0.6741,-0.675,-0.6621,-0.662,-0.6619,0,-0.6759,-0.6763,-0.6782,-0.6779,-0.6755,-0.6765,-0.6756,-0.6743,-0.6743,-0.674,-0.674,-0.6739,-0.6738,-0.6738,-0.6712,-0.6687,-0.6736,-0.6696,-0.6726,-0.6726,-0.6736,-0.6736,-0.684,-0.674,-0.674,-0.674,-0.6739,0,-0.6834,-0.6856,-0.6816,-0.6828,-0.6851,-0.6818,-0.6842,-0.6828,-0.6817,-0.6826,-0.6791,-0.68,-0.6765,-0.6771,-0.6751,-0.6771,-0.6771,-0.6761,-0.6755,-0.6764,-0.6765,-0.6763,-0.6758,-0.6742,-0.6742,-0.6741,-0.6741,0,-0.6922,-0.6896,-0.6914,-0.6891,-0.6886,-0.6904,-0.6884,-0.6894,-0.6877,-0.6889,-0.689,-0.6862,-0.6868,-0.6842,-0.6843,-0.6829,-0.6859,-0.6847,-0.6863,-0.6859,-0.6889,-0.6887,-0.6995,-0.7007,-0.6901,-0.6902,-0.6903,0,-0.697,-0.6986,-0.6964,-0.6968,-0.696,-0.6966,-0.6967,-0.6935,-0.6938,-0.6926,-0.6939,-0.6941,-0.6941,-0.6953,-0.6933,-0.6934,-0.692,-0.6958,-0.692,-0.6928,-0.692,-0.6918,-0.692,-0.6965,-0.6967,-0.6968,-0.6969,0,-0.706,-0.7046,-0.7048,-0.7046,-0.7047,-0.7044,-0.7039,-0.7044,-0.701,-0.7015,-0.702,-0.702,-0.7021,-0.7024,-0.7021,-0.7013,-0.6985,-0.6981,-0.6988,-0.6996,-0.7004,-0.6999,-0.6883,-0.6978,-0.6977,-0.6977,-0.6976,-0.6976,-0.7128,-0.714,-0.7127,-0.713,-0.7123,-0.7119,-0.7128,-0.7112,-0.7115,-0.7113,-0.7095,-0.7104,-0.7093,-0.7086,-0.708,-0.7087,-0.7069,-0.7079,-0.7082,-0.7084,-0.7089,-0.7005,-0.7087,-0.7086,-0.7086,-0.7086,-0.7086,0,-0.7215,-0.7205,-0.7208,-0.7202,-0.7205,-0.7179,-0.7172,-0.7176,-0.7184,-0.7177,-0.7178,-0.7184,-0.7187,-0.7169,-0.717,-0.7179,-0.7166,-0.718,-0.7178,-0.7177,-0.7106,-0.7099,-0.719,-0.719,-0.719,-0.719,-0.719,-0.719,-0.726,-0.7279,-0.7264,-0.728,-0.7269,-0.7277,-0.7275,-0.7272,-0.7265,-0.7274,-0.7276,-0.7264,-0.7252,-0.7252,-0.7254,-0.7249,-0.725,-0.7268,-0.7258,-0.7192,-0.7182,-0.7172,-0.7166,-0.7269,-0.7269,-0.7329,-0.7329,-0.733]},{"header":{"parameterUnit":"m.s-1","parameterCategory":1,"la1":30.2991,"la2":30.254,"lo1":-89.0895,"lo2":-89.0444,"dy":0.0017,"dx":0.0017,"nx":28,"ny":28,"refTime":"2024-02-02T03:00:00:Z","depth":0,"parameterNumber":3,"parameterNumberName":"V-component_of_WINDS"},"data":[0,0,0,0,0,0,0,0,0,0,0,0,0,0,0,0,0,0,0,0,0,0,0,0,0,0,0,0,0,0,0,0,0,0,0,0,0,0,0,0,0,0,0,0,0,0,0,0,0,0,0,0,0,0,0,0,0,0,1.1663,1.1663,0,1.166,1.166,1.166,1.1741,1.1743,1.1745,1.1747,1.174,1.1738,1.1736,0,0,0,0,0,0,0,0,0,0,0,0,0,1.1737,1.1735,1.1663,1.1663,1.1663,1.166,1.166,1.166,1.174,1.1743,1.1746,1.1748,1.1741,1.1738,1.1736,0,0,0,0,0,0,0,0,0,0,0,0,0,1.1716,1.1734,1.1663,1.1703,1.1706,1.166,1.166,1.166,1.174,1.1743,1.1746,1.1749,1.1742,1.1739,1.1735,1.1649,0,0,1.1725,1.1724,0,0,0,0,0,0,0,0,1.1717,1.1713,1.1697,1.17,1.1704,1.1704,1.1683,1.1656,1.1739,1.1727,1.1747,1.1751,1.1725,1.1724,1.1716,1.1649,1.1649,1.1725,1.1723,1.1721,1.1721,0,0,0,0,0,0,0,1.1718,1.1714,1.1662,1.1697,1.1701,1.172,1.1721,1.1679,1.1708,1.1728,1.1734,1.1733,1.1728,1.1719,1.1716,1.1649,1.1725,1.1722,1.172,1.1719,1.1512,1.1509,0,0,0,0,0,0,1.1715,1.1715,1.1662,1.1662,1.1719,1.1716,1.1717,1.1701,1.1708,1.1713,1.173,1.1737,1.1723,1.172,1.1716,1.1616,1.1721,1.1718,1.1716,1.1516,1.1511,1.1508,0,0,0,0,0,0,1.1716,1.1709,1.1662,1.169,1.1685,1.1711,1.1692,1.1699,1.169,1.171,1.1715,1.1715,1.1725,1.1721,1.1666,1.1617,1.1717,1.1714,1.152,1.1514,1.1509,1.1415,0,0,0,0,0,0,1.1718,1.1709,1.1677,1.1688,1.1683,1.1612,1.169,1.1696,1.1684,1.1693,1.1698,1.1701,1.1727,1.167,1.1662,1.1614,1.1711,1.1524,1.1517,1.1511,1.1423,1.1408,1.1395,0,0,0,0,0,1.172,1.165,1.1675,1.1669,1.1644,1.1609,1.1606,1.1638,1.168,1.1648,1.1661,1.1701,1.1624,1.1664,1.1656,1.1606,1.1527,1.1519,1.1512,1.1429,1.1411,1.1395,0,0,0,0,0,0,1.1631,1.1652,1.168,1.1612,1.1608,1.1623,1.1583,1.1617,1.1601,1.1609,1.1649,1.165,1.1588,1.1592,1.1636,1.1524,1.1583,1.1573,1.1523,1.1506,1.1492,1.1491,1.1709,0,0,0,0,0,1.1604,1.1575,1.1594,1.1532,1.1529,1.1556,1.1542,1.1568,1.1565,1.1563,1.1572,1.1567,1.1542,1.1524,1.1502,1.1424,1.1426,1.1386,1.1372,1.136,1.1351,1.131,1.1292,1.1482,1.1482,1.1482,0,0,1.1547,1.1555,1.1534,1.1515,1.1515,1.1483,1.1554,1.1517,1.1494,1.1557,1.1506,1.1512,1.1509,1.1443,1.1414,1.1444,1.1299,1.135,1.1341,1.1338,1.13,1.1282,1.1266,1.1476,1.1477,1.1478,0,0,1.1426,1.143,1.1378,1.1377,1.1377,1.1396,1.1383,1.1393,1.14,1.135,1.1397,1.1369,1.1325,1.1321,1.1313,1.1192,1.1228,1.1183,1.1108,1.1068,1.1053,1.104,1.0997,1.0981,1.1174,1.1174,1.1174,0,1.1355,1.1309,1.1347,1.1307,1.1297,1.1355,1.1303,1.13,1.1292,1.1283,1.1318,1.1264,1.1266,1.1199,1.117,1.1161,1.1148,1.1182,1.1053,1.104,1.1028,1.0987,1.0971,1.1168,1.1169,1.117,1.117,0,1.1221,1.1189,1.1148,1.114,1.1125,1.1079,1.111,1.109,1.1117,1.1132,1.108,1.1085,1.1065,1.1051,1.1076,1.0988,1.1007,1.1046,1.1106,1.1004,1.0966,1.0951,1.1161,1.1163,1.1164,1.1166,0,0,1.1043,1.1058,1.1042,1.1039,1.1044,1.1019,1.0976,1.0958,1.094,1.0933,1.0897,1.0859,1.0896,1.0887,1.0912,1.0877,1.0781,1.0921,1.0922,1.0895,1.0683,1.0653,1.0634,1.0806,1.0803,1.0801,1.0683,0,1.0926,1.0854,1.0887,1.0811,1.0781,1.0836,1.0799,1.0797,1.081,1.0786,1.08,1.0772,1.0824,1.0819,1.0786,1.0799,1.0739,1.0808,1.0772,1.077,1.077,1.0614,1.0582,1.0471,1.0669,1.0666,1.0664,0,1.0779,1.0767,1.0688,1.0699,1.0687,1.0653,1.0639,1.0616,1.0615,1.0627,1.0617,1.0651,1.0609,1.067,1.0612,1.0658,1.0646,1.065,1.0646,1.0643,1.071,1.0606,1.0436,1.0419,1.0642,1.0643,1.0645,0,1.0656,1.0621,1.0569,1.0565,1.0576,1.055,1.0553,1.0556,1.0543,1.0531,1.0523,1.0505,1.0495,1.048,1.0508,1.055,1.0446,1.0509,1.0454,1.0453,1.0429,1.043,1.0253,1.0421,1.0422,1.0422,1.0422,0,1.0521,1.0471,1.0514,1.0482,1.0427,1.0466,1.041,1.0419,1.0421,1.0391,1.0437,1.0408,1.0448,1.0422,1.0444,1.0392,1.0387,1.0395,1.0401,1.039,1.0389,1.0382,1.039,1.0418,1.0419,1.0419,1.042,0,1.0375,1.0402,1.0349,1.0364,1.0367,1.0325,1.0338,1.0309,1.0326,1.0288,1.0281,1.0307,1.0279,1.0306,1.028,1.0295,1.0225,1.0243,1.0226,1.023,1.0173,1.0178,0.9985,0.9962,1.0146,1.0144,1.0142,0,1.0286,1.0249,1.026,1.0245,1.0245,1.0219,1.0206,1.0243,1.0228,1.0225,1.0195,1.0172,1.0155,1.0109,1.0125,1.0105,1.0122,1.0056,1.0119,1.011,1.012,1.0122,1.0118,1.0043,1.004,1.0039,1.0037,0,1.0126,1.0142,1.0123,1.0108,1.0092,1.0081,1.0075,1.0059,1.0097,1.0077,1.0051,1.0038,1.0012,0.9988,0.9973,0.9976,1.0012,1.0017,1.0004,0.9991,0.9983,0.9986,1.019,1.0021,1.0023,1.0024,1.0025,1.0026,1.0006,0.9975,0.9979,0.9956,0.9955,0.9948,0.9921,0.9935,0.9914,0.9896,0.9919,0.9886,0.9887,0.9871,0.9869,0.9843,0.9871,0.9851,0.9846,0.984,0.9831,0.9988,0.9841,0.9841,0.9842,0.9842,0.9843,0,0.9848,0.9853,0.9832,0.9822,0.9803,0.9841,0.9836,0.9818,0.9788,0.9786,0.9769,0.9738,0.9716,0.973,0.9711,0.9687,0.9703,0.9681,0.9682,0.9682,0.9808,0.9822,0.9668,0.9668,0.9668,0.9668,0.9668,0.9668,0.9763,0.9714,0.973,0.968,0.9686,0.9654,0.9648,0.9641,0.964,0.9604,0.9586,0.9596,0.9601,0.9582,0.9563,0.9568,0.9558,0.9529,0.9539,0.9656,0.9673,0.969,0.9703,0.9527,0.9527,0.9416,0.9415,0.9414]}]]